User: anonymous   Login
Location: Unspecified
(0.0000°N, 0.0000°E)
Time: 19:31:53
(UTC+00:00)
Language:

Explorer 7 - Orbit

View from above orbital plane
View from above orbital plane
View from above satellite
View from above satellite

Ground track
Ground track

The orbit data is extracted from the following two-line orbital elements,

1 00022U 59009A   21212.54186822  .00000126  00000-0  32460-4 0  9999
2 00022  50.2851 341.9335 0138300  22.2854 338.4026 14.95636565531581
Epoch (UTC): 31 July 2021 13:00:17
Eccentricity: 0.0138300
inclination: 50.2851°
perigee height: 484 km
apogee height: 676 km
right ascension of ascending node: 341.9335°
argument of perigee: 22.2854°
revolutions per day: 14.95636565
mean anomaly at epoch: 338.4026°
orbit number at epoch: 53158

The dashed part of the orbit path shows where the satellite is in the earth's shadow,  

DLR